Theta_e
323 325 326 325 324 325 325 325 322 322 323 325 325 326 326 326 326 326 327 328 328 329 330 333 334 334 334 334 334 333 334 334 333 330 328 329 330 329 329 328 328 327 327 326 326 326 326 325 325 325 324 324 324 324 324 324 323 322 322 321 320 320 320 319 319 319 319 319 319
322 324 324 322 321 323 325 324 323 322 323 326 326 326 326 326 326 326 327 327 328 329 330 332 333 333 334 333 333 333 334 334 333 330 329 329 330 329 329 328 328 327 327 326 326 326 326 325 325 324 324 323 323 323 323 323 323 323 322 321 321 321 320 320 319 319 319 319 320
321 323 324 325 324 325 325 325 324 324 324 325 326 327 326 327 326 327 327 327 328 329 330 331 332 333 333 334 334 334 334 334 334 331 330 330 330 329 329 328 327 327 326 326 326 326 325 325 324 323 322 323 323 323 323 323 323 322 322 321 321 321 320 320 320 320 320 319 319
320 323 324 325 325 325 325 326 325 324 324 325 326 326 326 327 327 327 327 328 328 328 330 331 332 332 332 334 334 334 334 332 333 332 330 330 330 329 328 328 327 327 326 326 326 326 325 325 324 323 323 323 323 323 323 323 322 322 322 321 321 321 320 320 320 320 320 320 319
319 322 324 325 325 325 326 326 326 325 325 325 325 326 327 327 327 327 327 327 327 328 329 330 331 332 332 333 333 334 333 332 329 329 331 330 330 329 328 328 327 327 326 326 326 326 325 325 324 324 324 323 323 323 323 323 322 322 322 322 322 321 321 320 320 320 320 320 320
317 320 323 325 325 326 326 326 326 326 326 325 326 326 326 326 326 327 326 327 327 328 328 328 329 329 330 332 332 333 333 333 331 330 330 329 329 329 328 327 326 327 326 326 326 326 325 325 324 324 324 323 323 323 323 323 322 322 322 321 321 321 321 321 321 321 320 319 319
318 320 322 325 325 326 326 327 326 326 326 325 325 325 325 326 326 326 326 326 327 327 327 326 327 328 330 331 332 333 333 333 331 331 330 329 329 328 327 327 326 326 326 326 325 325 325 325 324 323 322 321 322 323 323 323 322 322 321 321 321 321 321 321 321 321 320 319 319
319 320 322 324 325 326 326 326 327 327 326 326 326 326 325 326 325 325 326 326 327 326 326 327 329 329 330 331 331 332 332 332 330 330 329 329 328 328 327 327 326 326 326 326 325 325 325 324 324 323 323 322 322 323 323 322 322 321 321 320 321 321 321 321 321 320 320 319 319
319 320 321 323 326 327 327 326 326 326 326 326 326 326 326 326 325 325 326 326 326 326 327 327 328 329 330 331 331 331 331 331 330 330 329 328 328 327 327 327 326 326 325 325 325 325 324 324 324 324 323 323 323 323 322 322 321 321 320 320 321 321 321 321 321 320 320 320 319
319 319 320 322 324 326 328 328 327 326 326 325 325 325 324 322 324 325 326 327 326 326 327 328 328 329 329 330 331 331 331 331 330 329 329 328 327 327 326 326 326 325 325 325 325 324 324 324 324 323 323 323 322 322 322 322 321 321 320 320 320 320 320 321 320 320 320 319 319
320 320 320 321 322 324 326 328 328 327 326 325 326 325 324 322 324 326 327 326 327 327 328 328 328 328 329 329 330 330 331 331 330 329 329 327 327 327 327 326 325 325 325 324 324 324 324 324 323 323 323 323 322 322 322 322 321 321 320 320 320 320 320 320 320 320 320 319 319
320 320 320 320 321 323 324 326 328 328 328 326 326 326 326 326 326 326 327 327 327 327 328 328 329 328 329 329 330 330 329 331 330 329 329 328 327 327 327 326 325 325 324 324 324 324 324 323 323 323 323 322 322 322 322 322 321 321 320 320 320 320 320 320 320 320 320 319 319
318 320 320 320 321 322 323 324 326 327 328 326 326 326 327 327 326 326 327 327 328 328 329 329 328 328 329 330 330 330 330 329 329 329 328 328 327 327 326 326 325 325 324 324 324 324 324 323 323 323 322 322 322 322 322 322 321 321 320 320 320 320 320 319 320 320 320 319 319
317 319 320 321 321 321 322 324 325 327 328 326 326 326 327 327 326 326 327 328 328 329 330 329 328 328 329 330 331 331 330 329 329 328 328 328 327 327 326 326 326 325 325 324 324 324 324 323 323 322 322 321 322 322 322 322 321 321 320 320 320 320 320 320 320 320 320 319 319
315 318 321 321 321 321 322 323 324 325 327 327 326 326 327 327 326 326 327 328 329 329 330 330 329 328 328 329 331 330 330 329 329 328 328 327 327 327 326 326 325 325 324 324 324 324 324 323 323 322 322 321 321 321 321 321 321 321 321 320 320 320 320 320 320 320 320 319 319
313 317 319 321 321 321 322 323 324 325 326 327 326 326 327 327 326 326 326 328 329 329 330 330 329 329 329 328 330 330 330 330 329 328 327 327 327 326 326 325 325 325 324 324 324 324 324 323 323 322 322 321 321 321 322 321 321 321 321 321 320 320 320 320 320 320 320 319 318
312 315 318 320 320 321 322 323 323 325 326 327 326 326 327 327 327 326 326 326 328 329 329 329 329 329 330 328 329 330 330 330 329 328 327 326 326 326 326 325 325 325 324 324 323 323 323 323 323 323 322 322 322 322 322 321 321 321 321 321 320 320 320 319 320 320 320 319 318
310 314 317 319 320 321 322 322 323 324 325 326 326 326 327 327 327 326 325 326 328 328 328 328 329 329 329 330 330 330 330 330 329 328 327 327 326 326 326 326 325 325 325 324 324 323 323 323 323 323 323 322 322 322 322 321 321 321 321 321 320 321 320 320 320 320 320 320 318
309 312 315 318 320 320 321 321 323 324 325 325 326 326 327 327 327 327 327 327 327 327 328 328 328 328 329 329 330 329 329 330 329 328 327 327 326 326 326 325 325 326 325 324 324 324 324 324 323 323 323 322 322 322 321 321 321 320 320 320 321 321 321 321 321 321 320 320 319
309 311 314 317 319 320 321 322 323 324 325 326 326 326 327 327 327 327 327 327 327 327 328 328 328 329 329 329 329 329 330 330 329 328 327 327 326 326 326 326 326 326 325 325 325 324 324 324 324 323 323 322 322 321 321 321 320 320 320 320 321 321 321 321 321 321 320 320 320
308 310 313 316 318 320 321 323 324 325 325 326 326 326 326 327 327 327 327 327 328 329 329 329 329 329 329 329 329 330 331 330 329 328 327 327 327 326 326 325 326 326 326 326 325 325 324 324 324 323 323 322 322 321 321 321 320 320 320 320 320 321 321 321 321 320 320 320 320
308 310 313 315 318 320 321 322 322 323 325 325 325 325 326 327 326 327 327 327 329 329 330 329 329 329 328 329 329 330 331 329 328 327 327 327 326 326 326 325 325 326 326 325 325 325 324 324 324 323 323 322 322 321 320 320 320 320 320 320 320 320 320 320 320 320 320 320 320
308 310 313 315 318 319 319 320 321 322 323 325 325 325 326 327 327 327 327 328 328 328 329 329 329 329 329 329 330 331 331 328 327 326 325 326 327 326 326 325 325 326 325 325 325 325 324 324 323 323 323 322 322 321 320 320 320 320 320 320 320 320 320 320 320 320 320 320 319
307 310 312 315 318 319 320 320 321 322 323 324 324 325 326 327 327 327 327 327 328 328 329 329 329 329 329 329 330 330 329 327 325 324 324 325 326 326 326 326 326 326 326 325 323 322 321 322 323 323 323 322 322 321 321 321 321 320 320 320 319 319 319 319 319 319 319 319 319
307 310 312 315 317 318 320 320 320 321 323 324 324 324 325 327 327 327 327 327 328 328 329 329 329 329 329 328 329 329 327 325 324 323 323 324 325 326 327 327 326 326 325 322 313 309 310 314 318 322 323 322 322 322 321 321 321 320 320 319 319 318 318 318 318 318 318 318 318
306 309 312 315 317 317 318 319 320 321 322 324 324 324 326 327 327 327 327 328 328 328 327 327 328 326 325 327 328 327 325 324 323 323 323 324 325 326 326 326 326 326 323 315 306 304 305 307 309 313 319 324 323 322 321 320 320 319 319 319 318 318 317 317 317 317 318 318 318
306 309 312 314 316 317 317 318 319 320 322 323 323 324 325 328 328 327 327 327 327 326 326 326 326 323 322 327 326 325 324 323 323 323 323 325 325 325 325 325 325 324 319 308 303 302 303 304 304 307 313 323 322 321 320 319 319 319 318 318 318 317 317 316 317 317 317 318 318
305 308 311 314 315 316 317 318 318 319 320 322 323 324 325 327 327 327 327 326 325 325 324 324 324 324 323 325 324 323 323 323 322 323 324 324 324 324 324 325 324 318 309 300 301 301 302 302 302 304 307 312 319 321 320 319 318 318 318 317 317 318 318 318 317 317 316 317 318
304 307 311 313 314 315 316 317 317 318 319 321 322 324 325 326 327 327 326 325 324 323 323 323 323 323 323 323 323 323 322 322 322 323 323 322 322 323 324 324 319 309 301 298 300 301 301 301 301 300 301 305 314 317 315 312 311 309 307 305 305 305 306 308 312 315 317 318 317
303 306 309 312 314 315 315 316 317 318 319 320 321 324 326 325 326 326 325 324 323 323 323 323 323 322 322 323 323 322 322 321 322 322 322 323 322 321 318 314 311 305 299 298 299 299 299 299 298 296 296 296 298 298 298 297 297 296 296 296 297 297 298 298 298 301 305 311 315
301 304 307 311 313 314 315 316 317 317 319 320 321 323 324 324 325 325 324 323 323 321 320 322 322 322 322 322 322 321 321 322 322 321 315 307 302 302 303 304 303 300 297 295 296 296 296 295 294 294 294 295 296 297 297 296 295 294 294 294 294 294 295 295 296 296 298 301 304
300 302 304 308 311 314 315 316 316 317 318 319 320 322 323 323 323 323 323 322 321 320 320 321 321 322 322 322 322 321 319 316 310 307 304 303 303 302 302 302 301 298 295 293 294 294 294 294 293 293 293 293 294 294 294 293 292 291 291 291 291 291 291 292 292 292 293 295 296
298 300 302 305 310 313 315 316 316 317 317 319 319 321 322 322 322 322 321 320 320 321 321 321 321 317 313 310 308 307 306 304 303 302 301 300 300 299 298 297 297 295 293 293 293 293 292 292 292 291 291 291 292 292 292 291 290 289 289 289 288 289 289 289 289 289 290 290 291
297 299 301 304 308 312 315 316 317 317 317 318 319 321 321 320 320 320 319 318 315 312 310 308 308 307 305 304 303 303 301 301 301 300 299 298 297 296 295 295 294 293 292 292 292 291 291 291 291 290 290 290 290 290 289 289 288 288 287 287 287 287 287 287 287 287 287 288 288
296 298 300 302 306 311 314 316 316 317 317 318 319 320 319 316 312 310 308 307 305 304 303 302 302 302 302 301 301 300 300 299 299 298 297 296 295 294 293 292 292 291 291 291 291 291 290 290 290 289 289 289 289 288 287 287 286 285 285 285 285 285 285 285 286 286 286 286 286
296 298 299 302 306 310 314 316 316 317 318 318 318 316 312 308 305 303 302 301 301 300 300 300 300 299 299 299 299 298 298 298 297 297 296 295 294 293 292 291 291 290 290 290 290 290 290 290 289 289 289 289 288 288 287 286 285 284 284 284 284 284 284 284 284 285 285 285 285
297 298 300 302 305 309 313 316 317 318 318 318 313 309 306 304 303 302 301 300 300 299 298 297 296 296 296 295 295 295 296 296 295 295 294 294 293 292 291 291 290 290 289 290 290 290 290 290 289 289 289 289 288 287 286 285 284 284 283 283 283 283 283 283 284 284 284 284 284
298 300 302 303 306 309 313 316 317 317 315 311 307 305 304 303 301 300 299 298 297 296 295 294 294 293 293 292 292 292 293 293 293 293 293 293 292 291 291 290 290 289 289 289 289 290 290 289 289 289 288 288 287 286 285 284 284 283 282 282 282 282 283 283 283 283 283 284 284
300 302 304 306 309 311 314 316 315 312 308 305 304 303 301 301 300 299 298 296 296 294 293 292 291 290 290 290 289 289 289 290 290 291 291 291 291 290 290 289 289 289 289 289 289 289 289 289 289 288 288 287 286 286 285 284 283 282 282 281 281 281 282 282 282 282 283 283 284
300 302 305 309 311 313 315 316 309 304 302 301 300 299 298 297 297 296 295 294 293 292 291 290 289 288 288 287 287 286 286 287 288 288 288 289 289 289 289 288 288 288 288 288 289 289 288 289 288 288 288 287 286 285 284 283 282 281 281 281 281 280 281 281 281 282 282 282 283
299 301 305 309 313 314 313 309 303 300 299 299 297 296 295 294 294 294 293 292 291 290 289 288 288 287 287 286 285 285 284 284 285 285 286 286 287 287 287 287 287 287 288 288 288 288 288 288 288 288 287 286 286 285 284 283 281 281 280 280 280 280 280 280 280 281 281 281 281
Wind_Speed
15 13 12 11 11 10 10 9 8 8 8 8 9 10 10 10 10 10 9 9 9 9 9 9 8 8 10 13 15 16 16 15 13 13 14 14 14 14 14 15 15 15 14 13 14 13 13 13 11 9 7 7 8 8 8 7 9 10 10 10 9 10 11 12 12 13 13 12 9
16 15 14 12 11 10 9 9 8 7 7 8 9 9 10 10 10 10 10 10 9 9 9 9 9 10 11 14 15 16 16 16 14 13 14 15 15 15 15 14 15 15 15 15 14 12 11 12 11 9 7 7 7 8 8 8 9 10 11 12 10 9 9 10 11 12 13 12 10
16 15 14 13 12 11 10 9 9 9 9 8 8 9 10 10 9 10 10 10 10 10 9 9 10 11 12 14 14 15 16 16 15 14 13 14 15 15 15 14 15 16 16 15 14 12 11 12 10 9 7 7 8 8 8 8 9 10 11 12 9 8 8 8 9 10 10 9 10
15 15 15 15 15 14 13 11 11 11 10 8 8 9 9 9 9 9 10 10 11 11 10 10 11 11 12 13 14 15 16 16 16 15 14 14 14 15 15 15 16 16 16 15 15 14 13 12 9 8 8 8 9 9 8 7 8 9 9 10 8 8 8 7 8 8 8 8 9
12 14 14 14 16 16 15 13 13 12 10 8 8 8 9 9 9 9 9 10 11 11 11 12 12 12 12 13 14 16 16 17 16 15 14 14 14 14 14 15 15 16 16 16 16 15 14 14 9 8 8 9 8 8 8 8 9 8 7 7 7 7 8 8 7 7 7 7 7
8 9 11 13 15 15 14 13 14 13 11 9 9 9 9 9 9 9 10 11 11 12 12 13 13 12 13 14 14 15 15 16 15 15 16 16 15 14 14 15 15 15 15 15 16 16 15 14 9 8 8 8 8 8 9 9 9 8 7 7 7 7 7 8 7 7 7 8 8
13 11 9 10 13 14 14 14 13 13 11 10 11 12 12 11 11 12 12 11 10 11 11 11 12 13 14 15 14 14 14 13 13 15 17 17 17 16 16 15 16 15 15 15 16 15 14 13 9 8 7 7 7 9 10 10 9 9 8 8 7 7 7 9 7 7 8 10 11
15 16 15 12 11 13 14 15 13 12 11 10 11 12 13 13 14 13 12 11 10 9 10 10 13 14 15 15 15 14 14 13 12 13 14 15 17 18 18 17 16 16 16 15 15 15 14 11 9 8 8 7 7 8 10 11 11 10 9 9 7 7 7 8 7 8 9 12 12
11 13 15 15 14 13 13 14 14 13 12 11 11 12 13 14 14 14 13 11 9 9 9 10 13 15 16 16 16 15 15 14 13 12 12 13 16 17 18 17 17 16 15 14 15 15 14 11 9 9 9 8 8 9 11 13 13 12 11 9 8 8 8 8 9 9 10 12 13
10 11 12 12 14 14 14 13 13 13 13 12 12 12 12 13 13 13 12 10 9 9 10 10 12 14 16 17 17 16 16 15 14 13 13 13 14 16 16 16 16 16 15 14 14 14 14 11 10 10 10 9 10 11 12 14 14 14 12 9 9 10 10 10 10 11 11 11 13
12 11 10 10 11 14 15 14 11 11 11 11 11 11 11 12 12 12 11 10 10 11 11 11 12 13 14 15 16 16 16 15 14 14 14 14 14 15 15 15 16 16 15 14 13 13 12 10 11 11 12 11 11 12 13 14 15 15 14 10 11 12 12 12 11 11 11 11 12
14 12 10 9 10 12 14 15 11 9 10 10 10 11 11 11 12 12 12 12 12 12 12 12 12 12 13 13 14 15 15 15 15 15 15 15 15 15 15 14 15 16 15 15 13 12 11 11 12 13 13 13 12 11 12 14 15 15 15 13 13 13 13 13 12 11 10 10 12
15 14 12 9 9 10 11 13 12 10 9 10 10 10 11 11 12 12 12 13 13 12 12 12 11 11 11 12 13 13 13 14 15 15 15 16 16 16 16 15 15 15 15 15 13 12 12 12 13 14 14 15 12 11 12 14 14 15 15 14 14 14 14 14 14 12 10 11 11
17 15 13 10 9 9 9 9 11 11 10 10 9 9 10 11 11 12 12 13 13 13 12 12 10 10 10 11 13 13 13 13 14 15 16 16 16 17 17 15 16 16 15 14 13 14 14 14 14 14 15 15 14 13 13 13 13 14 14 15 15 15 15 15 14 13 12 12 12
17 16 14 11 9 8 8 8 9 10 11 10 8 9 10 10 11 11 11 12 13 13 12 12 10 9 9 11 13 14 14 14 15 15 16 16 16 17 17 16 16 16 15 14 13 14 15 15 15 15 15 15 15 14 14 13 13 13 14 14 14 15 15 15 15 14 13 13 13
17 16 14 11 9 9 8 7 7 9 11 11 8 9 10 10 10 11 11 12 12 12 12 13 12 10 9 10 12 14 14 14 15 16 16 16 16 17 17 16 16 16 15 15 14 14 14 14 14 14 15 15 15 14 14 14 14 14 13 13 13 13 14 14 14 14 14 14 14
17 17 15 12 10 9 9 8 8 10 12 13 9 9 10 10 10 10 11 12 11 11 12 13 12 11 10 10 11 12 13 13 15 15 16 16 16 16 16 16 16 16 15 15 14 14 14 14 13 14 14 15 15 14 15 15 14 14 14 13 13 12 12 12 13 14 14 15 15
17 17 16 13 10 10 10 11 11 12 14 15 11 9 10 10 10 10 11 11 11 12 13 13 12 12 11 11 11 11 11 12 14 15 16 17 17 17 16 16 16 15 15 15 15 15 14 14 14 14 14 14 14 14 14 14 14 14 14 13 13 12 12 11 12 12 13 14 15
17 17 17 15 12 10 11 12 13 14 15 16 12 9 10 11 11 11 11 11 11 12 12 12 12 12 12 12 11 11 10 11 13 14 15 17 17 17 17 17 16 16 15 15 15 15 15 15 15 14 14 14 14 14 14 14 13 13 13 13 13 12 12 11 11 11 12 13 13
16 17 17 17 15 12 10 10 12 14 15 15 12 10 10 11 12 12 11 11 10 11 11 11 11 11 12 12 12 11 10 10 12 13 14 16 17 18 18 17 17 16 16 15 15 16 16 15 15 15 15 14 14 14 14 14 13 13 13 12 12 12 12 12 12 11 11 11 12
16 17 17 18 17 15 12 9 9 11 13 15 13 10 10 11 11 12 12 11 10 10 10 10 10 10 11 12 12 12 11 9 11 12 13 14 16 17 17 17 16 16 15 15 15 16 16 16 16 15 15 15 14 14 13 13 13 13 12 11 11 11 12 12 12 12 11 11 11
16 16 17 17 16 14 12 10 9 10 13 15 13 11 10 11 11 11 11 11 11 10 10 10 9 9 10 11 12 12 11 9 10 10 11 11 14 15 15 15 15 15 14 14 15 15 16 16 16 15 15 14 14 14 13 13 12 12 12 12 11 11 11 12 12 12 12 11 11
17 17 16 15 15 13 11 9 10 12 15 16 14 11 9 10 10 10 11 11 11 11 11 10 10 9 9 10 12 12 12 10 10 9 9 8 10 12 13 13 14 14 14 13 13 14 15 14 15 15 14 13 14 13 13 13 12 12 12 12 12 12 11 11 11 11 11 11 10
19 18 16 14 14 12 11 10 12 14 16 18 15 11 9 10 10 10 10 11 11 12 12 11 10 10 9 10 11 11 11 11 10 9 9 8 9 10 12 12 13 13 12 11 11 12 13 12 12 13 13 12 12 12 12 13 12 12 12 13 12 11 11 10 10 10 10 9 8
19 19 17 15 14 12 10 10 13 15 17 17 15 11 9 10 11 10 10 11 11 12 12 11 11 10 10 10 10 9 9 10 10 10 10 10 9 10 10 11 11 10 10 9 11 13 13 11 11 11 11 11 11 11 11 12 12 12 11 11 11 10 9 9 8 8 8 8 7
20 19 18 16 13 11 10 10 13 15 17 17 16 12 10 11 11 11 10 11 11 11 11 11 11 10 9 9 9 8 8 8 9 9 10 10 10 9 8 8 8 8 8 9 13 15 15 13 12 11 11 10 10 10 9 9 9 10 9 9 9 8 8 8 7 7 7 7 7
20 19 18 15 13 11 10 10 11 13 15 17 17 14 11 11 11 11 11 11 11 10 9 9 8 8 7 8 8 8 8 7 8 9 10 10 9 8 8 7 6 6 7 11 15 16 16 14 13 12 10 9 8 8 7 7 7 8 8 8 8 8 9 9 8 8 7 7 7
20 19 18 16 13 11 10 10 10 12 15 17 18 15 11 11 12 12 12 11 10 9 7 7 6 5 5 5 7 8 8 8 8 8 8 8 8 8 7 7 6 6 8 12 15 15 15 14 12 11 9 7 6 6 5 5 5 5 4 3 3 3 4 4 5 7 8 8 8
20 20 19 17 14 12 10 9 10 13 15 18 19 16 11 11 12 13 12 11 11 9 7 6 4 4 3 4 7 8 9 9 8 7 7 8 7 7 6 6 6 8 10 14 14 14 14 13 13 12 10 8 6 6 6 6 7 7 8 7 7 7 7 6 4 1 2 6 8
20 20 19 18 15 13 11 10 10 11 14 16 18 16 12 10 12 13 13 12 11 9 7 6 4 4 4 6 7 8 9 9 8 6 5 3 3 4 4 6 7 9 12 16 16 16 17 18 19 20 19 17 14 11 10 10 10 10 9 9 9 10 10 9 9 8 6 2 3
19 20 20 19 17 14 12 12 11 11 12 14 16 15 13 10 12 12 11 10 9 7 6 5 5 6 7 8 8 9 9 7 5 6 8 9 8 8 8 8 9 12 16 20 21 21 22 22 23 22 21 18 14 12 11 11 11 10 10 10 11 11 11 11 11 10 10 9 9
19 19 20 20 18 16 13 12 12 12 13 15 16 16 13 10 9 10 9 8 7 7 7 7 7 7 6 6 6 6 7 8 9 10 10 10 10 10 11 11 12 15 19 24 24 25 25 25 24 24 23 20 17 15 14 13 13 12 13 14 14 14 13 11 11 12 13 12 11
18 19 19 20 20 17 14 12 12 13 15 16 17 17 14 10 7 8 7 6 5 4 4 4 6 6 6 8 10 12 13 13 13 13 13 13 14 14 14 13 12 15 19 25 26 26 26 26 26 26 24 22 18 16 15 14 13 13 13 14 15 15 15 14 13 13 13 13 11
18 18 18 19 20 18 15 12 12 13 16 18 18 16 13 8 5 5 6 5 7 9 10 10 11 11 11 12 14 15 15 13 13 14 15 15 16 16 15 12 10 12 18 25 27 27 27 27 27 27 25 22 18 16 16 16 15 14 14 15 15 15 15 15 15 15 14 14 12
18 18 18 19 19 18 16 12 12 14 15 17 17 14 8 3 7 10 11 13 14 15 15 14 13 13 13 15 16 16 16 15 14 15 16 17 18 19 18 15 12 13 17 23 26 27 28 28 28 26 24 20 17 16 17 18 17 17 17 17 17 17 17 16 15 15 14 14 14
18 18 18 18 19 18 16 13 12 13 14 13 12 8 1 7 12 14 16 17 17 17 16 14 14 15 16 17 17 16 16 16 16 16 16 17 19 20 19 17 15 15 17 20 23 25 27 27 27 26 23 18 15 15 15 15 15 17 18 19 18 18 17 17 16 15 14 13 14
18 17 17 18 19 18 16 13 12 12 10 6 3 4 6 11 14 15 16 18 19 18 16 14 15 17 19 19 18 16 15 15 16 16 16 16 18 19 19 17 16 15 15 17 20 22 24 25 25 24 22 18 15 14 14 14 14 15 17 18 17 17 16 15 15 15 15 15 15
17 17 16 17 18 17 15 12 10 7 3 6 9 9 10 12 13 14 15 17 18 18 16 15 17 19 20 21 19 18 17 16 16 17 17 16 17 18 19 18 16 15 14 16 18 20 22 23 23 23 21 17 16 14 13 13 14 14 15 15 15 15 15 13 13 14 16 19 19
17 16 15 15 16 15 13 10 4 3 9 13 13 12 11 11 11 12 13 15 18 18 17 17 19 20 22 22 21 20 19 18 18 17 17 17 17 18 19 19 17 15 15 16 18 20 21 22 23 23 21 18 16 14 13 13 14 15 15 14 14 14 14 13 12 13 16 20 23
17 16 15 13 12 11 9 3 6 11 14 15 14 13 12 11 10 10 11 14 16 18 18 20 22 22 22 23 22 22 21 19 19 18 18 18 18 18 19 18 17 16 16 17 19 20 21 22 23 22 20 17 15 13 13 13 15 15 14 13 13 13 13 12 12 12 14 17 21
17 15 13 12 10 6 3 8 13 14 14 15 15 14 12 11 10 9 10 12 15 16 17 20 22 23 23 22 21 21 22 21 19 18 18 18 18 18 18 18 17 17 17 18 19 20 21 22 22 21 19 16 14 13 12 13 15 15 15 13 12 12 12 12 12 12 13 14 15
Wind_Direction
198 197 195 194 195 197 199 201 200 196 192 188 187 185 183 183 184 184 185 186 187 187 187 187 187 186 184 181 183 186 188 187 184 183 184 185 183 178 173 169 166 166 166 167 166 166 169 171 171 174 177 181 181 182 182 182 181 183 186 189 189 189 190 190 192 190 188 187 187
198 196 194 192 192 194 196 199 198 196 193 189 187 184 182 182 183 183 184 186 186 184 183 184 184 184 183 182 183 186 187 187 183 182 183 185 183 178 172 169 167 166 166 166 166 167 168 170 170 172 175 178 180 182 182 183 180 182 186 188 189 189 190 192 192 189 186 185 184
198 196 194 191 191 192 194 197 197 196 193 190 187 183 182 181 182 182 183 186 184 182 181 182 182 182 181 181 183 186 188 188 183 181 183 185 183 178 174 170 168 167 166 167 168 169 169 169 170 171 173 176 180 181 182 181 179 181 184 187 187 186 187 190 189 186 184 183 182
199 196 194 192 191 191 193 195 195 194 192 189 185 182 180 181 181 181 182 183 183 182 182 181 180 180 180 180 183 186 189 189 184 182 182 185 183 179 175 170 168 168 168 169 170 170 170 169 169 170 173 177 179 181 180 177 178 180 183 184 184 183 184 185 183 182 182 182 182
208 200 196 193 191 191 192 193 193 192 190 186 182 180 180 180 180 180 180 181 184 184 182 179 178 178 179 179 181 185 188 190 185 183 182 184 182 179 175 170 169 169 170 170 171 171 170 169 169 172 174 177 180 181 180 175 176 177 180 181 182 183 183 183 181 180 181 182 182
255 226 209 198 193 192 192 192 191 190 188 183 180 179 179 179 178 179 180 182 184 182 179 176 175 176 177 177 179 182 186 188 186 183 181 180 179 177 174 171 171 171 171 171 171 170 170 170 170 171 174 177 181 182 179 176 176 176 178 179 182 183 184 184 182 181 181 182 182
299 288 262 228 206 197 194 192 191 189 186 182 180 179 179 178 177 178 179 180 179 178 176 175 175 175 175 175 176 179 182 184 184 182 180 177 175 174 173 172 172 172 171 170 169 169 170 170 170 170 171 173 179 182 181 179 179 179 180 182 182 183 184 185 183 182 183 183 182
299 302 298 280 246 218 202 193 190 188 186 184 182 180 178 176 175 175 174 175 175 175 175 175 175 175 174 174 174 177 179 178 179 179 178 176 173 172 171 171 172 173 172 170 169 169 169 169 170 170 170 172 177 180 180 180 182 183 184 184 184 185 186 186 183 184 185 185 184
287 292 297 297 280 255 225 202 193 188 187 186 183 179 176 174 172 171 171 172 173 172 172 174 175 175 174 173 173 175 177 176 175 175 175 175 174 172 171 170 172 172 172 171 170 170 170 170 172 172 172 172 176 178 180 181 183 186 187 187 186 187 187 187 185 185 186 186 186
291 286 287 293 289 278 259 229 205 192 186 184 180 176 173 171 170 170 170 171 169 168 171 174 174 175 175 173 172 174 176 176 176 174 173 174 174 173 172 170 171 171 171 171 171 171 171 172 174 174 173 173 176 178 180 182 186 188 190 191 189 189 189 188 186 186 186 188 188
304 294 285 280 281 279 273 260 231 206 192 184 177 171 169 168 169 169 169 167 166 168 171 173 172 173 174 173 172 174 176 177 177 175 174 174 175 176 175 173 171 170 170 170 171 172 173 175 175 175 174 173 176 178 180 183 186 190 192 193 192 191 191 190 188 187 187 189 190
313 303 290 274 270 271 273 271 257 232 207 189 176 169 167 169 169 168 166 165 166 170 172 172 172 173 174 172 171 173 175 176 176 176 175 175 176 177 178 176 173 171 170 171 172 173 176 178 177 176 175 173 176 178 180 182 186 190 192 193 193 192 193 192 191 190 190 190 192
318 311 299 279 267 265 267 268 264 249 224 197 178 168 166 169 168 167 166 167 169 171 173 173 173 173 172 168 168 170 173 175 175 176 176 176 177 178 179 179 176 173 171 171 173 175 177 179 178 177 176 176 178 179 180 182 186 190 192 194 193 193 193 194 193 192 192 192 195
319 315 306 291 272 264 264 264 262 254 238 209 182 168 165 167 167 167 168 170 172 173 173 174 174 173 169 163 164 167 171 173 175 176 176 177 177 178 179 179 177 174 172 172 174 175 177 179 178 178 177 178 180 180 180 182 187 191 193 193 193 193 193 193 194 193 194 195 198
320 316 310 300 281 268 263 260 258 255 247 225 190 169 163 166 167 168 170 171 174 174 173 174 175 173 166 160 162 165 169 173 174 176 177 177 177 178 178 178 176 174 172 171 173 175 177 178 178 178 178 179 181 181 182 184 189 192 194 194 193 192 192 193 194 195 196 198 200
320 317 313 305 290 274 261 255 251 253 251 239 202 172 162 165 166 168 170 172 174 175 175 175 175 171 165 158 161 165 168 172 174 176 176 176 176 177 177 176 174 172 171 170 172 174 177 178 178 178 179 180 182 183 185 187 191 193 194 194 193 191 191 191 193 196 198 200 201
321 319 316 309 294 278 265 254 246 246 248 245 214 180 163 163 165 168 170 172 174 175 176 175 174 170 165 161 163 166 169 172 174 176 176 176 175 175 175 174 172 171 170 169 170 172 175 177 178 179 180 181 184 186 188 189 192 193 194 193 192 191 190 190 192 195 198 200 203
321 319 317 312 296 279 266 257 250 246 245 243 222 189 166 162 164 166 169 171 173 173 174 174 173 170 167 165 167 169 170 173 175 176 176 175 174 174 174 173 172 171 170 169 170 172 174 177 179 180 182 184 186 187 189 189 191 192 192 193 193 192 192 192 193 195 198 200 203
320 319 318 315 301 283 267 257 255 251 247 243 226 197 171 162 162 164 167 170 170 170 170 171 172 171 170 169 170 171 172 173 175 176 176 175 174 175 175 175 174 173 171 171 172 174 176 178 179 181 182 185 186 186 187 187 189 190 191 192 193 195 196 197 197 198 199 200 202
318 318 317 316 309 296 278 259 254 252 250 246 231 204 176 162 161 161 163 166 165 165 165 167 170 172 172 172 172 173 173 171 175 178 180 177 176 176 177 176 175 174 174 174 176 178 179 179 179 180 181 182 182 182 183 184 186 188 189 192 195 197 199 201 201 202 202 202 202
316 315 315 314 310 303 292 275 264 258 256 252 237 212 183 164 160 159 160 160 159 159 161 164 168 172 174 173 173 174 172 166 172 180 184 180 177 177 176 176 175 175 175 178 180 180 180 179 178 178 177 178 178 178 179 181 184 187 190 192 196 199 200 202 203 204 204 204 202
314 312 311 310 307 301 293 283 278 273 267 260 244 219 187 164 159 157 156 153 154 156 160 165 170 175 176 175 175 174 171 160 166 176 183 179 175 174 173 172 173 175 177 180 181 181 180 178 176 174 174 174 175 175 176 179 182 187 190 194 196 198 200 201 202 203 203 203 201
312 310 308 306 304 298 288 276 270 268 266 261 247 224 189 161 157 154 152 150 153 158 163 168 175 179 180 177 175 173 167 155 160 173 186 188 179 175 174 175 176 177 177 177 177 177 176 174 172 171 171 172 174 175 177 181 183 187 191 194 196 197 198 198 198 199 199 199 197
310 308 306 304 302 297 285 267 259 257 257 257 247 227 191 159 156 153 151 150 155 161 167 173 179 182 182 181 178 173 164 153 157 171 190 204 193 183 178 178 179 178 176 173 171 171 170 169 168 168 169 172 175 178 181 184 187 189 192 194 194 194 194 194 192 192 193 192 191
308 306 303 301 300 295 282 261 253 252 253 253 247 230 195 161 157 155 154 154 158 164 170 177 181 183 183 185 183 175 164 155 160 172 188 201 197 186 176 172 174 174 172 167 164 163 163 164 166 168 171 174 178 181 185 187 188 189 189 189 188 188 187 186 185 184 184 185 185
306 304 302 300 298 292 280 261 252 251 253 254 250 233 201 165 159 157 157 158 160 164 170 178 180 180 180 181 182 178 171 164 169 179 188 195 190 180 169 165 165 166 165 162 161 161 161 163 165 168 172 175 177 178 180 181 180 179 178 177 177 177 176 178 179 180 182 184 186
306 304 302 299 296 289 278 265 257 255 256 257 252 236 205 168 162 160 161 162 161 162 169 179 177 173 170 174 179 182 180 173 177 183 186 182 172 165 162 162 159 157 155 155 158 159 159 158 158 160 163 166 165 163 162 161 161 160 161 163 167 172 175 178 179 181 184 187 189
306 305 302 298 294 288 280 271 262 258 258 259 255 241 212 170 164 163 164 163 160 160 166 177 171 164 161 172 183 186 184 177 177 175 169 159 159 161 164 161 150 139 137 144 148 149 147 143 141 140 142 147 151 147 138 131 129 123 116 113 130 145 153 159 176 184 188 190 190
307 306 303 298 293 288 284 276 263 256 255 258 258 250 225 177 167 165 165 163 160 161 165 170 162 157 169 189 192 189 184 178 170 159 152 157 170 177 174 154 133 119 118 125 126 123 119 113 106 99 92 86 85 79 72 66 65 62 56 45 39 38 39 34 19 3 198 192 189
308 308 305 300 294 288 283 279 269 258 253 254 257 252 235 188 170 165 165 163 163 164 165 162 156 165 187 200 192 185 180 176 167 155 142 126 104 97 99 103 106 103 102 102 98 95 92 90 87 83 79 75 74 72 69 67 65 63 60 54 49 46 44 41 32 23 16 11 133
308 308 306 303 296 288 280 276 272 264 257 256 257 253 239 198 172 164 162 162 162 159 155 151 162 183 197 198 187 179 173 167 144 112 93 79 68 65 70 80 90 93 94 93 92 91 90 90 89 87 86 85 84 82 79 76 72 69 64 58 52 48 45 43 37 33 31 35 57
306 306 305 304 298 291 281 272 268 264 262 260 257 253 240 204 171 156 152 153 157 163 168 174 182 190 195 185 167 150 130 104 89 85 85 88 84 79 76 77 86 93 97 98 97 96 94 92 90 88 87 85 83 80 78 76 72 68 64 60 55 52 49 47 43 41 42 48 61
304 303 303 302 298 292 283 270 262 259 258 257 253 247 237 209 171 151 148 153 147 144 148 158 147 127 107 101 96 92 89 87 89 89 89 87 83 79 76 73 81 93 100 101 99 97 95 93 91 89 87 85 84 82 79 77 74 70 66 62 59 56 55 53 51 49 49 52 60
300 299 298 297 295 291 283 270 261 256 254 252 249 243 234 212 165 129 117 108 91 80 76 78 87 93 95 95 92 91 90 89 90 90 90 88 85 81 77 73 75 87 96 100 100 99 97 95 93 90 88 86 84 82 80 77 75 72 69 66 62 59 57 55 54 53 53 55 60
296 294 293 291 290 287 280 269 261 255 252 250 247 247 244 164 96 87 85 85 86 86 85 85 90 92 91 87 87 88 90 90 90 90 89 89 87 84 81 77 74 78 86 96 99 100 99 98 96 93 91 88 86 84 82 80 77 75 72 69 64 61 58 56 55 55 56 59 64
291 288 286 284 283 281 276 268 260 253 249 244 242 247 250 98 94 95 97 97 94 93 93 95 96 93 88 83 81 81 84 88 88 88 88 89 90 88 86 82 76 73 77 87 95 98 99 99 98 96 94 91 89 87 85 82 80 77 74 71 67 63 60 59 57 56 57 60 64
287 282 278 276 275 274 272 267 259 251 244 227 185 136 112 101 101 104 106 105 101 100 100 101 97 92 87 83 80 77 78 82 85 86 86 87 89 90 89 85 78 73 72 79 89 94 97 99 99 98 97 95 93 91 89 86 83 79 76 73 70 66 64 62 60 59 59 60 64
288 281 274 268 267 267 266 265 263 255 216 110 107 110 110 103 104 106 108 108 108 107 106 103 96 91 87 84 80 76 72 72 78 81 83 82 85 87 88 86 79 73 71 74 82 88 93 95 96 97 97 98 97 95 92 89 86 83 80 77 73 69 67 65 63 62 61 62 65
297 288 277 266 261 259 260 263 282 75 93 99 101 99 96 95 99 103 106 108 110 110 108 102 96 91 88 85 81 76 71 68 70 73 77 78 79 82 85 85 80 76 72 73 79 84 88 91 93 95 96 98 98 97 95 93 90 87 84 82 79 74 70 67 66 65 64 64 66
305 296 284 271 259 253 251 257 82 88 93 97 96 92 88 85 89 94 100 103 105 106 104 100 96 93 90 87 85 81 76 70 68 69 72 75 75 77 79 82 80 77 73 73 77 81 85 89 91 93 95 96 97 97 97 96 93 90 87 85 83 80 75 71 69 68 66 65 65
308 295 280 263 252 237 176 100 93 91 91 92 94 92 89 83 81 84 91 99 103 104 102 98 95 93 91 89 87 84 80 75 70 68 69 71 72 72 74 77 77 75 72 71 75 78 82 86 88 91 94 96 97 97 98 97 94 92 90 88 87 85 82 78 74 70 68 67 66